Location: Bill Sadowski Park
(25.6087°N, 80.3181°W)
Time: 05:34:18
(UTC-05:00)

Tiangong 1 - Visible Passes

Search period start: 12 December 2017 00:00
Search period end: 22 December 2017 00:00
Orbit: 276 x 303 km, 42.8° (Epoch: 11 December)

Date Brightness Start Highest point End Pass type
(mag) Time Alt. Az. Time Alt. Az. Time Alt. Az.
17 Dec 3.7 05:29:20 10° S 05:30:42 14° SE 05:32:07 10° ESE visible
18 Dec 1.8 05:34:31 37° SSE 05:34:38 37° SE 05:37:00 10° ENE visible
19 Dec 2.1 05:39:39 28° NE 05:39:39 28° NE 05:41:02 10° NE visible
20 Dec 3.2 05:44:17 12° NNE 05:44:17 12° NNE 05:44:33 10° NNE visible
